Theta_e
355 355 361 359 363 357 361 356 360 365 368 362 361 363 361 359 364 360 366 356 348 345 348 345 352 353 344 345 347 349 364 350 351 355 359 356 356 359 361 360 359 357 359 360 361 360 359 359 359 359 359 359 359 360 360 361 362 362 362 362 363 364 364 364 365 365 366 366 367 367 368 368 368 368 369 369 369 368 368 367 367 367 367 365 364
355 362 360 359 360 358 357 356 359 358 358 361 364 367 359 357 365 361 352 356 355 369 352 343 342 346 344 344 343 345 360 350 354 352 362 360 356 358 363 360 360 358 359 361 360 361 361 360 360 359 360 360 361 361 363 363 364 364 364 363 364 364 365 365 365 366 366 367 367 368 369 368 369 369 369 370 370 368 368 368 368 367 366 364 364
355 362 362 361 361 368 354 358 361 358 360 355 364 370 368 360 356 355 361 358 362 359 360 353 345 346 349 352 343 344 344 347 347 344 354 363 358 357 359 362 360 360 360 361 361 361 361 361 361 361 361 362 363 363 364 365 364 365 365 366 365 366 366 366 366 367 367 368 368 369 369 369 369 370 370 370 370 369 368 368 368 366 364 364 364
360 360 359 360 359 358 360 357 357 358 365 361 365 371 363 363 358 366 354 369 355 357 351 351 352 346 346 339 342 351 344 342 339 340 343 357 360 357 358 359 363 361 362 362 361 362 362 362 362 362 362 363 364 364 364 365 365 365 365 366 367 367 368 368 368 368 368 368 369 369 369 370 370 371 371 370 370 369 369 370 368 365 364 363 363
363 363 364 355 354 353 355 366 362 375 361 357 362 375 363 358 356 363 367 355 354 356 346 346 340 347 343 347 347 344 347 346 339 339 338 343 355 362 359 359 358 362 362 362 362 363 363 363 363 363 363 364 364 364 365 366 365 366 366 367 367 367 368 369 369 369 369 369 370 370 370 370 371 371 371 370 369 370 370 369 368 365 363 364 363
368 373 362 356 352 358 360 363 373 365 366 368 363 359 362 367 358 356 356 350 359 359 341 351 350 345 348 340 337 343 341 339 342 348 341 342 350 356 362 362 360 358 359 364 364 364 365 364 365 364 364 365 365 366 365 366 367 367 366 367 367 368 368 368 368 369 370 370 370 371 371 371 372 372 371 370 370 371 370 368 367 365 363 363 361
371 374 365 369 355 355 360 361 367 369 365 371 369 360 361 364 373 355 354 353 347 350 361 347 341 347 358 352 346 341 355 349 354 343 345 352 344 348 350 353 364 362 361 360 365 366 365 367 366 366 366 366 366 366 367 367 367 368 368 369 368 368 368 369 369 369 370 370 371 371 371 372 372 372 371 372 371 371 369 368 367 365 363 362 362
365 373 369 365 358 356 362 366 368 371 369 371 371 373 365 363 362 365 363 353 349 352 349 355 345 347 349 352 346 351 349 347 346 337 341 351 349 349 356 358 354 359 368 363 363 362 368 368 367 368 368 367 367 368 368 369 368 368 369 369 370 370 370 370 370 370 370 371 371 372 372 373 373 372 372 372 372 371 368 366 366 365 364 363 361
370 369 375 365 357 357 356 358 371 367 361 381 368 361 364 350 365 367 361 369 357 346 346 347 348 344 338 338 355 353 355 354 350 359 344 344 360 343 351 349 359 362 362 361 369 365 369 371 370 370 369 368 369 369 369 369 369 370 369 369 370 370 371 371 372 371 371 371 371 372 373 373 374 373 373 373 372 370 368 366 366 366 364 362 361
371 374 377 365 361 362 366 363 363 367 373 368 371 358 369 358 367 365 362 366 361 350 347 349 336 336 342 340 349 350 353 350 360 359 353 346 363 352 353 348 352 348 350 350 349 368 367 369 373 372 370 370 370 370 369 369 369 369 369 370 370 371 370 371 370 371 371 371 372 373 373 373 373 373 373 373 371 369 367 367 366 364 363 362 360
368 369 368 365 362 361 365 361 368 374 372 369 362 361 361 361 362 366 367 362 365 354 355 359 339 339 339 346 341 361 350 352 353 348 341 345 346 353 341 355 361 362 355 354 354 358 369 367 363 365 366 372 372 371 369 369 370 369 370 369 371 370 370 370 370 371 370 371 372 372 372 372 373 373 373 373 371 368 367 366 366 364 363 362 360
367 369 369 371 363 366 368 361 365 369 367 358 361 361 363 364 368 351 360 360 358 361 357 359 347 350 353 355 355 355 351 354 354 350 363 355 343 351 340 349 352 359 350 361 355 347 356 366 367 365 365 369 370 372 373 372 371 370 371 371 370 371 371 370 371 371 371 371 371 371 372 372 373 374 374 373 371 368 366 367 366 364 363 361 360
369 368 367 369 367 370 373 368 367 368 374 360 363 360 367 364 372 369 356 361 356 360 349 349 352 349 350 347 352 346 352 346 341 340 338 344 344 348 349 354 351 353 365 360 366 348 365 369 371 370 368 372 373 372 373 372 371 371 372 372 372 373 372 372 372 371 370 371 371 371 371 373 375 375 374 372 369 368 367 367 366 365 362 361 360
370 368 368 367 365 365 372 372 372 374 370 372 361 365 365 362 361 364 362 364 362 348 348 356 351 347 347 346 348 348 353 347 340 339 337 338 343 355 360 344 348 351 355 368 365 350 351 359 367 372 373 377 376 376 378 375 372 371 372 375 376 374 374 372 371 370 370 371 371 372 373 374 375 376 374 371 370 368 367 367 366 364 363 361 360
366 367 365 362 364 374 370 377 367 371 367 368 368 366 368 363 368 367 358 354 358 350 361 359 354 354 364 355 346 341 347 347 344 341 339 341 340 341 352 342 342 349 352 351 362 364 352 361 363 364 373 378 374 374 374 370 372 372 375 374 374 376 374 371 369 370 371 371 371 372 373 375 376 375 374 372 370 369 367 367 367 364 363 361 359
359 359 360 362 368 369 364 364 370 378 381 377 371 364 370 363 355 364 365 349 349 351 353 358 362 358 354 349 349 341 339 343 344 343 344 343 344 339 337 337 347 350 350 346 351 358 364 366 361 372 366 369 368 373 373 373 377 373 378 375 370 368 371 369 368 368 368 370 371 372 375 376 376 375 374 372 371 370 368 367 367 364 363 362 359
358 360 360 368 371 371 370 368 374 370 366 370 366 357 360 359 362 365 362 358 348 358 353 352 356 366 367 359 346 348 345 342 338 345 345 342 342 342 343 341 339 350 351 347 351 356 348 352 355 362 368 379 380 379 381 376 375 378 378 373 373 372 371 368 367 368 370 371 373 375 376 377 375 374 373 372 372 371 370 369 367 366 363 362 359
358 360 361 365 369 370 372 369 368 368 370 364 366 364 362 356 364 359 358 363 363 354 349 364 354 370 360 363 362 349 350 346 338 343 363 346 344 342 343 341 342 342 361 357 347 347 355 351 361 356 369 371 372 377 373 370 381 375 380 375 378 372 370 370 371 371 373 374 376 377 378 377 376 375 374 373 372 372 370 370 367 366 365 363 360
355 360 361 370 370 371 371 369 368 366 369 367 367 354 355 352 365 357 366 366 371 362 358 350 365 358 349 349 351 353 351 348 345 342 341 353 344 340 341 342 341 340 341 341 343 352 361 361 352 349 361 363 375 370 367 362 365 370 368 371 370 371 372 372 373 373 374 374 376 377 378 377 376 375 374 372 372 371 370 369 368 368 365 364 360
357 363 365 365 368 370 373 369 368 362 367 364 360 355 358 362 364 363 370 376 366 363 357 354 353 366 354 351 350 347 350 346 345 339 341 337 348 348 345 343 342 341 342 342 344 346 352 350 349 351 359 361 365 371 367 366 370 371 369 367 370 372 372 372 373 373 372 372 373 375 376 376 376 374 372 371 371 371 371 370 368 367 366 364 361
360 359 365 364 366 368 369 368 366 366 368 361 358 354 360 364 375 374 371 369 366 362 369 363 354 350 361 361 359 359 350 344 343 343 340 340 345 339 343 343 343 343 348 343 345 346 347 350 352 352 356 365 363 363 364 364 371 373 372 368 376 369 370 371 370 371 371 371 372 372 373 373 374 374 373 372 371 371 371 370 369 368 366 365 362
357 364 367 365 365 367 362 360 360 356 361 361 360 363 364 365 368 362 365 368 376 367 364 362 358 357 351 362 368 362 354 347 343 342 342 353 338 337 339 338 338 342 346 348 348 347 349 349 350 352 356 360 362 367 363 364 372 364 364 367 371 372 370 369 368 371 370 370 370 370 369 369 370 370 370 371 372 372 372 371 370 368 366 365 364
350 359 359 359 362 364 357 357 358 363 365 364 366 358 356 357 355 361 366 368 368 368 360 363 361 357 349 356 354 345 348 347 356 349 343 342 346 341 343 346 342 341 347 349 353 350 350 352 351 353 359 361 361 363 363 364 363 363 367 365 369 372 369 368 369 369 369 368 368 367 367 367 367 368 368 369 369 368 369 370 369 369 367 366 364
364 356 353 354 359 360 361 360 365 364 362 365 359 357 358 360 364 373 369 369 370 368 362 361 356 362 357 350 349 346 354 345 350 352 347 348 349 344 344 346 345 350 347 354 351 350 351 350 352 353 354 356 359 358 356 356 361 363 362 363 366 369 366 370 367 367 367 365 365 366 367 368 367 367 367 367 367 367 368 368 369 368 368 367 365
356 350 350 352 358 362 361 361 369 368 373 372 371 370 372 364 364 358 363 368 371 366 366 359 356 359 356 352 348 344 347 347 347 346 352 356 356 349 347 347 348 346 354 348 351 359 353 353 356 354 355 356 356 354 356 354 356 364 360 364 364 367 368 366 367 367 366 365 365 367 367 367 366 366 366 365 366 366 366 368 368 368 367 366 365
350 357 352 351 352 357 362 362 371 370 371 368 371 372 373 366 365 366 358 368 372 368 368 361 360 356 355 352 352 351 350 351 351 350 352 349 352 348 351 351 345 345 353 356 357 349 371 368 354 354 356 357 355 360 360 358 357 359 364 364 361 361 362 365 365 363 366 365 364 365 366 366 366 365 364 363 363 365 365 365 366 368 367 366 364
354 361 360 356 356 361 359 360 365 370 371 370 360 367 371 371 369 368 366 363 369 368 361 356 353 354 357 355 355 353 355 360 353 361 351 354 354 349 351 346 343 345 347 357 356 348 347 354 353 355 354 357 360 359 361 359 359 362 364 364 361 357 358 358 356 357 358 358 361 364 364 364 364 363 362 362 363 363 364 365 365 366 367 366 364
357 360 353 359 359 361 360 357 367 363 367 368 368 364 369 365 368 366 365 357 362 362 363 353 353 357 355 361 358 353 356 357 357 354 358 359 354 356 356 354 347 343 346 347 347 350 351 349 354 355 357 359 361 362 361 363 362 361 361 363 361 365 358 354 353 353 353 354 356 359 362 363 362 362 361 362 362 362 363 365 365 366 366 365 364
353 355 356 363 367 359 362 356 363 369 367 368 362 365 369 369 362 368 365 359 365 359 359 354 357 355 354 355 362 358 358 360 357 352 359 364 357 358 359 355 355 348 346 344 349 346 350 351 350 358 361 362 361 362 361 364 362 362 362 360 359 361 354 352 351 350 351 352 354 357 359 360 359 359 360 360 360 360 360 362 362 363 364 364 364
353 353 358 356 361 364 361 362 359 362 362 359 361 363 369 369 364 370 364 365 357 354 363 362 358 364 360 355 357 359 359 355 352 351 357 365 355 353 352 360 365 354 352 344 345 350 351 352 357 357 363 363 359 359 358 371 360 362 363 361 359 360 350 351 351 351 351 351 352 354 356 358 358 358 357 357 356 354 354 355 356 358 360 360 360
359 366 360 354 357 359 364 363 363 363 361 360 367 370 367 370 367 361 360 361 357 354 361 361 361 364 362 356 362 362 362 359 358 355 356 355 352 354 353 357 357 357 354 352 343 352 351 350 354 358 361 362 359 361 361 363 363 358 358 361 361 355 355 352 351 351 350 349 350 351 354 355 355 355 353 351 349 348 348 347 348 350 352 354 356
354 356 354 356 359 355 355 356 356 358 359 359 362 365 368 368 364 359 361 359 358 357 357 358 360 363 362 360 363 362 364 365 361 358 356 355 355 355 355 359 359 356 357 352 345 344 354 351 353 357 360 360 367 358 356 358 361 360 358 361 362 357 357 354 350 350 351 350 350 350 351 351 352 352 349 347 345 345 345 344 343 344 344 344 346
355 352 354 358 359 358 358 363 353 358 366 361 362 367 369 367 366 363 360 358 359 358 357 355 360 362 365 363 364 364 364 358 357 353 353 356 359 356 359 359 359 358 356 352 349 348 353 358 357 357 359 358 355 357 355 355 358 359 359 364 365 361 359 359 356 348 349 349 349 349 348 348 348 347 345 344 343 342 342 340 339 337 337 337 337
355 353 357 354 354 358 356 358 360 363 362 365 360 360 364 366 364 362 360 359 358 356 355 354 355 360 362 361 363 360 358 352 357 355 357 358 354 361 360 357 358 357 356 355 352 348 347 355 354 356 356 356 353 357 355 356 356 358 356 356 359 359 359 361 362 362 349 349 348 347 347 346 345 343 341 340 339 338 337 335 333 330 331 331 330
353 354 355 353 357 357 355 356 358 358 361 362 363 366 366 365 365 363 362 359 358 356 354 355 356 358 356 358 354 353 355 356 358 358 355 355 355 356 358 358 357 354 354 355 351 349 348 350 355 353 353 352 353 352 355 357 361 357 357 353 352 356 357 359 361 359 349 348 349 348 346 345 342 339 338 336 334 334 333 331 328 326 327 327 327
349 352 355 354 356 360 356 355 358 357 362 362 360 361 364 363 365 363 360 359 357 355 355 357 359 358 356 352 351 355 355 354 357 357 357 356 356 356 355 357 355 349 348 350 354 349 348 346 350 348 349 351 353 355 356 355 353 356 355 350 352 355 353 356 358 359 353 348 350 349 346 342 340 337 334 333 332 330 328 327 326 326 325 325 325
349 350 354 355 355 354 348 350 355 361 360 362 362 360 362 365 366 362 361 360 360 360 362 363 360 353 349 349 352 353 355 353 355 355 356 354 354 354 355 354 353 351 348 348 353 352 348 346 346 349 350 350 353 356 353 350 352 348 350 348 347 349 347 344 341 339 350 345 346 346 343 341 338 336 333 331 330 329 328 326 325 324 323 323 324
350 347 348 348 348 353 353 353 353 358 360 359 361 361 359 361 364 363 363 362 361 361 360 358 352 349 348 348 352 352 352 352 353 355 355 354 353 353 352 352 352 349 349 351 351 348 347 346 346 345 349 346 349 352 341 345 342 341 343 344 347 348 342 336 332 330 333 336 342 345 340 337 335 333 334 332 330 329 328 326 325 324 322 321 321
348 346 346 348 351 350 356 356 358 361 361 361 364 364 364 364 364 363 360 358 357 356 357 353 349 348 348 349 350 355 355 355 354 353 353 352 351 351 352 352 352 351 348 348 347 346 347 345 344 347 343 342 338 335 338 342 341 340 339 341 340 344 341 333 330 327 330 333 341 339 336 338 337 334 331 330 330 329 328 327 326 325 324 321 321
346 347 346 344 345 347 354 352 359 362 363 361 362 363 364 365 364 361 358 354 354 355 353 351 352 352 352 350 353 353 354 353 352 352 351 350 349 346 347 350 350 349 348 346 344 346 344 341 339 337 335 334 334 335 336 337 335 338 339 339 337 337 341 335 328 327 330 332 336 342 337 337 338 333 331 331 331 330 330 329 328 327 325 322 321
346 346 347 345 347 346 347 355 362 362 363 363 361 361 364 365 363 358 356 354 353 353 354 351 349 350 352 354 352 353 355 355 353 352 352 350 346 344 346 347 348 347 345 345 343 340 339 338 337 336 333 330 331 331 331 331 332 332 338 339 337 337 337 339 334 333 332 328 331 336 340 335 339 343 339 341 339 332 330 330 330 328 325 322 322
363 359 357 354 347 344 352 358 361 360 355 350 347 346 347 352 357 357 355 353 353 352 352 353 351 352 352 352 352 358 355 353 353 352 347 346 345 345 344 344 345 343 341 340 339 338 335 333 333 330 328 327 328 329 329 331 333 334 334 334 334 335 337 336 339 333 333 331 330 332 336 336 330 332 332 327 337 334 331 327 324 324 325 323 322
362 368 357 355 355 357 356 357 357 354 347 343 338 335 338 342 352 356 354 352 349 351 351 350 348 351 350 349 350 352 350 350 348 347 344 346 345 344 344 345 345 342 340 336 335 335 332 329 329 328 327 326 327 329 329 330 331 330 331 333 333 333 331 330 328 338 335 332 331 331 329 333 332 329 330 328 335 332 328 327 328 326 324 323 323
365 364 364 362 357 357 356 354 350 344 340 335 331 333 337 337 344 354 355 354 354 354 351 351 349 347 346 346 347 346 343 342 340 340 343 344 341 342 341 340 339 339 339 337 333 330 329 326 325 325 325 325 326 328 328 329 330 331 331 331 330 329 328 328 330 330 333 335 330 327 326 325 327 327 329 330 333 331 328 325 325 324 323 323 323
365 363 366 363 362 355 353 351 347 344 340 332 332 334 336 336 339 355 354 353 350 348 348 347 347 346 346 344 342 341 340 341 338 336 335 336 339 340 341 340 338 336 328 329 332 331 329 326 324 323 324 324 323 323 326 327 330 329 329 329 327 328 329 328 328 328 327 332 328 325 320 320 321 320 322 326 327 331 325 327 326 326 324 325 324
362 363 363 364 363 360 355 352 346 343 341 335 333 334 336 340 346 351 348 346 346 345 345 344 344 343 343 341 338 335 336 336 335 334 333 331 331 330 330 330 331 334 336 334 331 331 328 325 322 320 322 324 321 322 325 328 326 327 328 325 323 325 327 327 331 325 325 325 319 322 317 315 317 317 320 322 324 323 335 327 324 326 325 324 324
350 348 344 346 356 357 354 346 343 341 340 329 332 336 336 336 339 346 345 344 343 343 344 343 342 341 340 339 339 338 337 336 336 334 331 329 328 327 325 325 325 326 327 328 328 328 328 326 323 322 322 323 322 322 323 325 324 326 327 324 322 325 327 329 331 329 322 323 319 317 310 314 315 315 318 319 320 321 324 322 322 326 326 325 323
350 347 348 353 349 348 347 346 343 340 337 328 333 334 334 336 341 344 343 341 340 340 340 340 340 339 338 337 336 336 336 336 336 336 335 333 330 327 326 325 324 325 326 331 327 330 331 328 326 323 321 324 326 327 327 323 324 325 327 322 320 319 321 318 316 317 323 321 319 315 311 312 315 315 317 319 320 320 323 332 325 325 326 325 324
346 347 347 347 348 346 345 343 341 340 338 327 325 327 330 333 339 341 340 339 338 337 336 337 338 339 337 337 337 336 337 338 337 331 335 335 333 331 329 328 327 325 324 326 326 325 325 323 322 323 322 322 321 320 319 320 327 326 323 317 313 316 317 314 315 313 316 317 317 317 314 313 315 316 316 318 319 320 320 320 320 324 324 324 324
342 343 344 344 345 344 342 340 340 337 335 327 320 321 325 330 339 339 337 336 335 334 333 332 333 336 340 342 339 334 332 329 323 325 333 336 332 332 330 328 328 327 326 326 327 327 326 325 325 325 326 325 328 327 323 320 322 326 318 313 314 316 315 314 312 313 318 316 317 319 317 313 314 317 315 316 319 320 319 318 320 321 322 323 321
341 341 341 339 339 339 339 338 338 335 333 329 318 320 324 328 335 337 336 334 332 331 330 329 330 328 327 330 332 328 324 321 317 320 327 336 332 330 328 327 325 324 326 329 329 329 329 329 329 330 331 326 324 323 323 323 324 324 320 316 316 315 314 315 315 314 311 315 317 321 315 313 312 315 315 313 311 315 318 317 319 319 322 324 324
Wind_Speed
3 3 3 3 3 3 2 1 1 2 1 1 3 3 2 3 0 2 2 4 3 5 5 5 4 3 5 5 3 4 2 4 4 7 7 7 6 10 15 15 14 14 14 13 11 11 11 11 10 11 10 10 10 10 9 9 9 9 9 9 10 10 10 11 11 11 12 12 13 13 13 13 13 13 14 14 14 14 14 13 13 13 12 12 12
3 2 2 5 3 1 3 5 1 3 3 3 2 2 1 3 1 2 7 3 3 1 4 7 6 4 6 5 5 4 3 3 3 6 8 6 6 7 15 14 14 14 14 13 12 11 11 11 11 10 10 10 10 10 10 10 10 10 9 9 10 10 11 11 11 12 12 13 13 13 13 13 14 14 13 13 13 13 13 12 12 12 11 11 11
3 2 4 6 2 2 3 5 4 3 4 1 2 1 0 4 4 4 4 1 1 3 0 3 4 2 3 2 5 5 5 4 3 5 8 7 6 6 9 15 14 15 14 14 13 12 12 12 11 11 11 11 11 10 10 10 10 10 10 10 10 11 11 11 11 12 13 13 13 13 13 14 13 13 13 13 13 12 12 11 10 10 10 10 10
4 2 4 5 3 3 2 5 3 3 1 3 3 1 4 2 3 3 5 3 3 3 4 2 3 2 3 4 4 2 4 4 5 4 5 6 6 6 6 8 14 14 14 14 14 13 13 12 12 12 12 12 12 11 11 10 11 11 11 11 11 11 11 12 11 12 13 13 13 13 13 13 13 13 12 12 11 11 10 10 9 9 9 9 10
4 2 4 3 6 1 4 2 3 1 1 3 4 2 5 7 6 2 3 3 3 1 4 3 5 3 3 3 3 3 3 3 4 4 5 4 7 6 6 6 7 12 14 14 14 14 13 13 13 13 13 12 12 12 12 12 12 12 12 12 12 12 12 12 12 12 13 13 12 13 13 13 13 13 12 11 10 10 9 9 9 8 8 8 9
1 4 5 5 10 6 1 1 2 2 3 3 1 6 3 1 2 5 6 5 2 1 4 1 2 3 3 3 5 4 4 3 3 2 6 5 3 7 7 6 6 5 7 14 14 14 14 14 13 14 13 13 13 13 13 13 13 12 12 13 13 13 13 13 13 13 12 12 12 12 12 12 13 12 11 10 9 9 8 9 8 8 8 8 8
2 3 1 2 2 4 6 3 2 3 1 2 3 3 4 3 2 4 5 6 4 3 1 3 4 3 2 2 2 4 2 2 2 4 4 3 6 3 5 7 7 7 6 5 10 14 14 14 14 14 14 14 13 13 13 13 13 13 13 13 13 14 14 14 13 13 12 12 12 11 12 12 12 11 11 10 9 8 8 8 8 8 8 8 8
1 1 2 2 2 2 1 2 2 3 3 0 2 2 3 3 2 0 5 6 7 3 1 2 3 2 2 2 3 2 3 2 3 4 5 3 4 3 2 4 6 7 7 6 5 8 14 14 14 14 13 13 12 13 13 13 13 14 14 14 14 14 14 13 13 12 12 12 12 12 12 12 11 10 10 9 8 7 7 7 8 8 8 9 9
2 2 3 2 4 2 2 3 1 2 3 0 1 4 3 4 2 2 2 1 4 8 2 0 2 3 3 4 2 2 1 2 2 1 4 4 1 5 4 4 4 4 3 2 7 6 11 14 14 14 14 13 13 13 14 13 14 14 14 15 15 14 14 13 13 13 12 12 12 12 12 12 11 10 9 8 8 7 6 6 7 7 8 8 9
3 2 2 3 1 2 1 3 2 3 2 2 1 4 2 3 2 3 3 2 1 3 5 1 4 5 4 5 3 1 2 3 1 2 3 4 2 2 3 5 4 5 5 6 6 8 6 11 13 14 14 13 13 12 12 13 13 14 14 14 14 14 14 13 13 12 12 12 12 12 11 11 11 10 9 8 7 6 6 6 6 6 7 8 9
2 2 3 2 1 3 2 2 1 1 2 2 3 4 2 0 1 3 4 4 2 4 2 2 5 6 2 2 3 1 3 2 3 1 5 3 2 2 2 3 1 1 4 4 2 2 5 4 7 6 6 11 11 12 12 13 12 13 13 14 14 14 14 13 13 11 12 11 11 11 11 11 11 10 9 8 7 6 5 5 5 5 6 7 8
2 3 3 2 3 2 1 2 1 1 2 4 3 3 3 3 2 3 4 5 4 3 1 2 4 3 3 1 2 2 3 3 2 2 2 2 5 2 5 3 3 1 3 2 3 2 3 5 7 5 5 9 14 12 11 11 10 11 12 12 14 13 13 12 12 11 11 11 11 11 11 11 11 10 9 8 7 6 5 4 4 4 5 6 7
2 3 2 1 3 2 2 2 3 2 2 3 2 4 1 1 2 3 3 3 2 2 6 5 6 5 4 7 4 4 3 4 4 4 4 4 4 4 4 3 3 4 1 1 1 5 2 4 4 5 5 3 7 12 12 11 11 10 10 11 11 11 11 11 10 9 9 10 10 10 10 11 11 10 9 8 7 6 5 3 3 4 4 5 6
3 2 3 2 2 3 1 3 2 1 2 1 1 0 1 3 2 2 3 2 0 4 4 1 2 2 3 5 4 5 5 3 5 4 5 4 4 3 2 2 2 3 3 1 2 3 4 4 4 2 3 3 2 0 3 5 6 11 11 9 9 9 9 8 8 8 9 9 9 9 10 10 10 10 9 9 8 6 4 3 2 2 3 4 5
4 3 3 4 3 1 1 1 2 2 2 2 3 2 3 2 2 1 3 3 2 4 1 1 2 0 1 1 2 4 5 6 6 7 8 8 6 3 2 5 9 6 5 4 2 3 2 1 3 4 3 2 1 1 2 3 2 3 8 8 8 7 7 7 7 7 8 9 9 10 10 10 10 9 10 10 9 6 4 3 2 1 2 2 4
6 6 4 4 1 1 3 3 2 1 0 1 2 2 3 1 4 1 2 3 1 2 4 3 2 3 1 1 2 2 3 2 3 4 8 10 10 9 7 6 1 2 3 4 5 3 2 2 3 2 4 3 3 2 3 2 3 2 3 4 5 4 5 7 7 7 8 8 9 9 10 9 9 10 10 10 9 6 4 3 2 1 1 1 2
6 6 5 3 2 2 3 4 2 2 3 2 3 4 2 3 2 1 2 2 2 0 4 2 1 1 1 1 2 1 1 3 4 5 5 4 7 10 7 8 4 2 1 3 5 3 5 5 5 5 3 2 1 1 1 2 2 2 2 3 4 4 5 6 6 7 7 8 8 9 9 9 9 9 10 10 10 7 5 4 3 2 2 1 1
5 5 4 4 3 3 1 2 3 2 2 3 2 2 2 4 2 2 3 2 1 3 3 2 1 2 2 3 3 1 1 3 2 3 2 3 6 5 7 7 4 4 2 2 5 5 4 3 4 5 3 4 3 0 2 2 1 2 1 4 3 4 5 6 6 6 7 8 8 8 9 8 9 9 10 11 10 7 6 4 3 3 2 2 0
6 4 3 3 3 3 2 2 2 2 3 2 2 3 3 3 1 2 1 3 1 2 2 4 3 3 4 1 4 0 2 1 2 3 4 4 5 5 7 9 8 6 2 4 5 1 1 2 2 6 4 3 2 1 2 3 6 2 1 1 2 5 6 5 5 6 6 7 7 8 8 9 9 9 10 10 9 8 7 5 4 3 3 2 1
5 5 4 4 3 3 2 3 2 3 2 3 3 4 3 2 3 2 4 1 1 1 3 4 4 1 2 1 2 3 3 5 6 5 4 5 2 2 5 9 7 6 5 4 5 3 2 8 11 6 1 3 2 1 1 3 3 2 0 5 5 5 4 4 4 5 6 6 7 7 8 8 9 9 9 9 9 8 8 7 6 4 3 2 2
2 5 4 4 4 3 4 3 2 3 3 4 4 5 3 3 2 2 1 1 2 3 2 2 4 4 2 2 1 2 2 4 5 4 4 3 2 3 3 5 4 4 3 5 8 7 7 6 10 9 5 1 3 4 4 5 4 2 3 6 4 4 4 3 4 5 5 6 7 7 8 8 8 9 9 9 9 9 8 7 7 6 4 2 2
4 3 3 4 4 3 3 5 4 5 4 3 3 2 2 2 2 3 3 2 2 3 3 4 4 4 4 3 1 2 3 4 4 4 4 1 4 4 4 8 6 6 9 7 8 6 5 4 8 7 4 2 3 3 7 9 5 4 2 5 4 6 4 2 2 3 4 6 7 8 9 9 10 10 10 10 10 10 9 9 8 7 5 3 2
5 6 6 5 4 4 5 5 5 4 0 3 2 3 4 4 4 5 2 2 2 2 4 3 3 4 5 5 5 4 6 5 2 2 3 3 3 3 2 3 5 6 5 7 4 6 5 5 6 5 2 1 1 3 3 7 11 12 3 5 5 3 2 2 1 2 4 5 7 9 9 10 10 10 10 11 10 10 10 9 9 8 7 5 3
3 5 5 7 5 4 4 3 2 2 2 2 4 4 2 3 1 2 1 2 2 2 3 4 5 3 4 6 5 6 2 5 3 3 5 2 2 2 3 3 4 1 3 3 4 5 5 6 4 5 9 9 10 9 11 12 9 8 10 11 3 1 0 5 3 5 5 5 6 8 9 9 10 10 10 10 10 10 10 10 8 8 8 7 4
5 5 7 6 5 5 4 4 2 2 2 2 3 3 1 1 3 4 3 3 3 3 3 5 5 3 4 5 6 5 7 10 8 4 2 1 1 0 2 4 3 3 1 4 3 2 4 5 7 8 6 5 7 3 1 3 9 11 6 8 4 7 7 6 7 6 6 6 7 8 9 10 11 11 11 11 11 11 11 10 10 9 8 7 7
6 6 5 6 5 7 4 4 2 3 2 2 2 2 2 2 2 3 4 3 3 3 3 5 4 5 3 4 6 6 5 3 2 1 1 2 3 2 2 2 5 5 3 2 3 2 3 4 7 3 5 6 4 3 3 0 3 12 11 8 5 3 5 7 13 17 13 8 8 9 9 10 11 12 12 12 13 13 13 12 10 8 8 8 7
5 3 5 6 5 5 7 4 3 3 3 3 4 3 2 2 2 3 3 3 2 3 3 5 5 5 4 2 3 4 3 2 4 1 2 2 1 3 3 4 3 4 4 2 2 4 6 5 4 5 4 3 4 3 2 2 2 7 9 5 6 5 7 19 15 12 15 20 21 16 12 12 12 12 12 12 13 14 14 14 13 11 7 6 6
4 4 6 4 4 5 5 5 3 4 4 3 3 3 3 3 3 3 3 5 3 5 2 9 6 5 3 1 2 4 2 4 3 3 1 2 3 3 3 2 3 3 3 3 3 3 5 3 2 3 3 2 2 2 2 2 2 5 4 3 3 5 12 10 9 8 10 12 12 14 15 12 12 12 13 13 14 15 16 16 16 15 12 8 6
5 5 5 3 3 6 4 6 4 3 4 3 3 4 2 2 3 2 3 4 4 9 6 3 6 2 2 3 1 3 4 4 5 4 2 2 3 3 1 4 3 2 2 2 2 3 4 4 2 1 3 3 3 2 1 1 1 2 2 4 4 3 9 10 10 10 9 10 9 8 8 9 11 11 13 14 15 16 16 16 17 18 18 15 12
5 6 6 6 4 6 5 4 6 6 5 5 4 4 3 3 4 3 2 5 9 7 5 3 2 1 3 3 3 3 3 4 5 6 4 2 3 4 5 3 1 1 1 1 3 1 2 3 2 1 2 3 3 3 2 1 4 4 2 4 5 3 6 10 9 8 6 5 6 6 6 9 11 12 14 15 16 16 16 16 17 17 17 17 17
5 2 4 8 6 5 4 4 4 4 5 5 2 0 1 0 1 4 4 3 3 3 3 2 3 2 3 4 3 3 3 4 5 6 6 5 7 8 3 3 3 3 3 2 2 0 3 4 3 2 1 2 3 3 3 1 3 8 4 1 1 4 7 7 9 6 3 3 3 5 6 9 10 12 14 14 15 16 16 16 16 16 16 16 16
7 8 6 5 4 6 8 8 6 7 7 5 3 2 2 2 1 3 3 3 2 2 3 1 2 2 2 3 3 3 3 3 4 5 6 7 6 2 1 3 1 2 3 2 2 4 2 4 4 4 4 3 1 3 5 2 2 8 4 3 1 2 5 4 5 4 2 1 2 3 5 7 9 11 13 14 16 16 17 17 17 17 17 17 17
5 8 7 6 5 5 3 3 6 6 4 5 3 3 3 3 4 4 4 4 4 1 2 4 4 4 3 3 3 3 3 5 6 6 3 4 2 2 3 1 1 2 2 2 2 4 3 2 3 3 3 6 4 5 5 5 4 3 2 5 1 3 3 3 2 3 3 2 1 2 5 7 9 11 13 14 15 15 16 16 16 15 15 16 16
8 8 6 7 7 7 7 6 2 3 4 4 6 4 4 4 4 4 4 3 2 1 1 2 3 4 5 5 4 7 7 9 3 4 3 5 4 3 1 2 2 1 1 1 2 2 3 2 2 3 3 6 5 6 5 6 5 3 6 5 4 5 3 1 0 1 5 2 5 5 7 9 10 12 13 13 14 14 15 15 15 14 14 15 14
8 7 7 9 5 4 7 8 7 6 5 6 5 3 2 3 3 3 4 4 2 2 2 3 2 2 4 5 9 8 5 3 4 3 6 7 5 4 3 2 4 4 4 2 1 2 2 2 1 2 5 5 4 5 5 3 2 3 3 4 7 2 1 2 0 2 3 3 6 5 8 10 12 12 11 12 13 13 13 13 13 13 14 14 14
9 8 9 7 4 5 5 5 9 7 5 4 5 4 4 4 4 4 4 4 3 2 4 5 3 1 5 8 5 5 4 7 6 4 3 4 5 5 5 6 4 3 2 5 2 1 1 2 4 5 3 3 2 2 3 3 3 3 2 6 7 3 1 1 2 2 3 4 4 8 9 11 11 11 11 10 11 12 11 12 13 13 14 14 14
7 7 5 7 7 8 9 6 4 8 6 3 1 2 4 4 4 4 4 3 3 3 3 2 3 10 8 3 7 4 6 4 4 5 5 7 6 5 5 4 3 2 2 4 3 1 3 3 2 1 2 2 1 2 4 4 2 4 4 7 8 7 5 7 7 6 1 7 3 6 10 11 10 10 11 11 12 12 12 13 13 14 14 15 15
7 8 9 9 8 6 5 5 5 5 6 6 7 6 5 4 4 3 3 3 3 2 2 5 10 4 3 2 4 2 2 2 3 4 5 6 6 6 5 4 3 2 3 4 2 3 3 2 3 3 3 4 4 6 9 7 7 7 6 7 6 6 5 7 7 7 7 8 3 4 7 8 8 10 10 9 10 11 11 14 14 13 14 14 14
7 8 8 6 4 5 4 4 1 5 5 5 4 2 2 3 3 4 3 3 2 2 4 7 7 4 2 2 1 2 2 4 5 5 5 6 5 6 7 6 4 4 4 3 5 2 2 3 4 4 5 7 7 7 7 7 7 7 6 6 6 5 6 6 5 7 7 8 5 2 4 6 10 6 8 8 8 9 12 15 13 13 13 13 13
8 8 8 8 7 6 3 4 6 7 5 4 3 2 2 2 3 3 4 4 4 3 4 4 3 4 2 1 2 6 5 5 5 5 5 5 6 6 5 5 4 3 3 3 3 1 5 7 6 6 6 6 6 5 6 7 8 7 7 5 5 6 4 5 6 7 6 6 5 8 5 7 5 7 8 9 12 11 11 11 11 11 10 11 12
8 8 7 7 5 6 7 3 8 6 4 4 3 3 1 3 3 4 5 5 4 2 4 3 5 5 3 4 4 4 10 17 19 16 13 9 4 4 5 5 5 6 6 5 5 5 7 7 6 6 6 7 7 7 7 8 9 8 7 7 6 6 5 4 4 5 6 6 6 6 6 4 2 3 6 4 3 7 10 8 6 9 9 9 10
2 3 3 3 4 6 7 11 7 6 5 4 6 8 7 4 3 3 5 4 3 4 5 3 4 5 5 5 8 18 18 19 19 18 18 17 16 10 5 5 5 6 7 7 6 6 7 8 7 6 8 8 8 7 7 7 6 6 7 7 6 6 5 4 2 4 6 7 6 6 7 4 5 7 5 7 6 7 4 4 2 2 5 8 8
2 2 2 1 1 6 10 8 9 7 5 5 8 8 9 11 6 4 4 5 4 3 5 5 6 6 7 6 6 12 14 15 14 18 18 20 19 19 20 19 15 8 6 8 7 7 7 8 7 8 8 8 8 7 8 8 8 8 7 5 6 6 6 6 4 0 5 6 6 6 6 8 5 6 6 7 5 5 4 2 2 4 7 6 7
2 2 3 2 1 8 6 9 9 7 6 6 7 7 8 7 4 2 5 5 6 6 8 7 6 6 6 8 8 7 7 8 8 9 15 18 17 20 21 21 22 22 17 9 8 8 8 8 8 8 7 7 7 7 8 7 7 6 7 6 6 6 6 6 5 3 4 7 6 6 7 7 9 9 7 7 4 3 3 2 2 4 5 5 6
3 2 2 3 3 10 9 9 8 7 6 5 6 6 4 2 3 6 8 7 7 7 7 7 6 6 7 8 7 6 7 13 9 7 6 8 15 17 18 20 21 20 17 19 16 10 7 8 8 9 7 5 6 6 7 6 6 6 7 7 7 7 6 5 6 6 8 8 6 5 7 8 8 8 8 8 8 3 2 2 4 2 2 3 5
3 0 3 5 4 8 8 8 8 7 6 4 7 6 3 5 12 11 10 10 8 8 7 8 7 8 8 8 8 7 6 7 7 7 6 8 8 9 9 9 9 13 15 16 16 16 13 8 8 8 6 6 6 5 6 6 7 6 6 7 7 7 7 7 4 7 6 8 9 4 6 8 9 8 7 8 8 9 1 2 4 2 2 3 4
4 6 9 7 3 6 9 10 8 7 4 6 7 8 12 15 14 11 9 9 8 8 8 8 8 9 8 8 8 7 7 6 6 8 8 9 9 9 10 10 10 9 9 9 8 7 6 6 8 7 6 5 5 5 5 5 6 5 5 5 6 6 5 4 3 4 8 9 9 7 7 6 8 8 8 8 10 8 8 2 4 3 2 6 4
1 7 7 5 6 7 8 9 9 8 5 6 6 4 11 15 15 9 9 9 8 7 8 8 8 7 8 8 8 8 7 7 8 12 11 7 7 9 9 9 8 8 8 8 10 8 7 6 5 5 4 5 5 5 5 6 5 6 6 4 5 8 7 7 7 7 6 6 9 8 6 6 8 8 7 8 8 9 7 4 4 5 5 7 7
2 5 7 7 6 7 8 8 10 9 6 5 7 7 8 13 11 9 10 9 9 10 8 7 6 6 8 8 8 8 7 4 4 6 9 8 5 6 7 8 6 6 5 4 9 11 11 9 9 8 5 5 6 9 12 13 9 6 5 7 9 7 7 7 7 7 6 7 9 8 6 6 9 7 9 8 8 7 8 9 10 8 5 10 10
4 6 7 8 7 6 8 9 9 8 6 5 9 10 12 12 9 9 9 10 10 9 8 7 7 8 11 17 10 7 6 5 7 7 5 8 5 5 6 6 7 6 5 6 4 3 4 7 7 7 5 4 3 7 15 15 14 11 8 8 7 6 7 7 7 8 3 8 8 9 6 8 8 7 9 8 7 6 8 10 11 11 14 8 10
5 7 8 9 8 8 8 10 12 11 7 6 11 13 15 14 10 7 8 10 10 8 8 9 8 8 9 11 16 10 8 10 15 14 9 5 5 6 7 7 8 8 7 5 3 3 2 3 2 1 1 3 7 6 9 16 16 12 7 7 6 7 7 7 7 6 6 4 6 7 6 6 8 7 8 8 8 6 7 10 10 10 8 8 9
Wind_Direction
174 181 218 166 81 36 12 228 137 204 272 247 17 4 98 118 200 281 289 297 131 151 161 170 201 150 143 172 153 186 185 130 190 143 132 138 153 172 177 177 182 182 188 193 196 202 208 214 220 224 230 236 240 246 250 254 258 260 263 265 269 273 276 279 282 286 288 290 293 296 298 300 302 303 305 310 313 315 319 319 320 325 332 337 338
170 184 246 63 56 323 36 340 207 306 254 74 227 164 308 72 195 215 264 192 109 209 205 167 181 171 163 168 157 150 124 145 185 127 139 144 146 168 180 182 183 187 188 192 197 202 209 216 222 228 233 236 241 245 249 252 255 261 264 266 268 271 274 278 281 284 286 290 293 296 297 299 299 301 305 309 311 316 319 319 322 330 338 340 342
172 120 77 65 335 265 88 283 303 207 58 310 273 111 11 183 140 237 258 13 119 209 355 78 104 187 123 79 128 143 175 177 163 158 140 140 140 154 184 185 188 189 190 193 197 203 210 217 222 229 233 236 242 245 250 253 258 261 264 265 266 269 272 276 279 283 286 289 292 294 297 297 297 301 306 308 311 316 316 317 323 335 341 343 344
60 55 56 145 195 46 130 241 287 44 338 92 254 186 252 125 195 168 242 246 156 252 168 211 113 187 142 140 111 151 172 184 179 121 101 133 149 162 160 186 192 192 194 196 199 204 212 218 225 229 231 236 240 243 245 251 255 258 260 262 263 267 270 273 277 281 285 287 290 294 296 297 299 302 306 307 314 314 313 317 325 339 346 348 345
183 140 77 259 80 236 220 220 206 293 166 204 65 317 16 360 344 318 279 197 173 253 176 157 185 110 148 160 86 66 353 94 106 144 140 150 164 155 161 174 184 196 198 200 203 207 212 218 225 228 232 237 240 242 244 247 249 252 256 259 261 265 268 272 276 279 283 286 289 293 295 297 300 305 307 309 312 311 313 319 325 340 349 353 350
42 96 154 214 142 226 133 243 286 206 144 11 193 63 328 332 345 327 352 352 337 7 84 91 300 168 90 158 149 176 189 187 106 136 160 160 138 150 162 165 170 176 199 205 207 208 212 219 223 226 232 236 239 241 245 247 249 252 255 258 261 264 268 272 275 278 281 284 288 291 294 296 300 305 307 308 308 308 314 317 325 337 349 356 0
298 357 157 293 114 143 188 190 149 287 126 127 98 156 189 204 38 5 337 347 5 334 266 61 20 15 164 102 175 200 161 57 128 184 108 146 159 176 153 161 172 176 187 184 210 212 215 217 220 226 230 235 236 242 245 250 252 255 257 259 262 265 268 273 277 278 280 284 287 290 294 297 300 303 304 305 303 305 312 317 324 334 348 357 5
194 280 324 266 185 173 215 129 201 241 86 101 184 50 357 29 30 131 21 346 353 289 353 296 176 187 55 37 26 334 125 167 229 205 145 159 145 134 189 156 165 176 182 181 177 206 212 214 219 225 229 232 238 241 246 250 254 258 261 263 264 266 270 274 277 277 279 282 286 290 293 296 299 301 300 301 299 303 311 317 323 336 348 357 7
197 209 277 332 246 277 152 173 288 100 341 276 64 75 343 103 314 7 115 243 325 332 35 293 161 147 240 156 139 340 359 137 302 335 84 28 180 176 177 174 179 140 155 192 172 190 202 207 215 215 220 226 229 233 236 241 246 249 251 254 258 262 266 270 272 274 277 280 285 288 292 293 297 297 296 293 294 301 305 311 322 337 351 357 4
226 186 249 272 101 1 55 24 11 15 302 55 324 120 149 25 337 30 336 313 68 304 290 254 278 169 198 124 157 182 46 273 88 330 124 218 208 310 184 149 190 164 191 209 199 176 188 205 206 208 211 216 223 230 234 240 243 247 251 255 258 259 262 264 267 271 275 279 282 286 289 291 292 292 289 285 287 292 299 304 321 343 357 359 1
246 273 276 327 5 107 276 45 306 208 287 45 312 101 87 223 11 23 303 297 252 250 297 6 296 2 346 95 114 193 313 104 70 320 261 245 148 233 244 177 117 183 198 204 258 128 170 190 204 216 225 221 224 227 234 237 238 246 252 257 258 260 264 266 269 270 275 278 282 284 287 289 289 287 284 279 277 283 289 300 321 346 2 0 0
238 298 314 42 338 299 81 222 348 46 19 59 341 40 38 336 70 14 301 285 267 270 299 306 352 322 353 358 269 82 228 334 317 285 199 247 239 183 259 99 177 4 303 4 80 305 200 182 194 194 221 216 218 223 229 233 238 243 250 254 259 261 262 267 270 271 274 278 279 282 285 286 284 281 277 272 268 271 280 288 310 338 358 3 3
201 251 283 253 185 313 55 342 3 15 10 85 339 40 48 313 257 193 270 270 299 319 44 335 24 354 341 357 336 165 221 164 252 254 267 222 219 175 197 218 106 168 97 150 200 267 95 131 168 197 222 230 205 223 230 237 240 241 242 248 255 258 264 267 270 272 275 277 279 280 282 281 279 274 272 270 265 263 267 272 293 328 354 2 4
188 224 245 242 252 207 88 307 97 340 359 60 20 176 41 284 34 292 254 315 277 270 100 335 35 27 348 340 337 338 326 173 240 249 250 229 223 212 159 4 120 182 193 186 221 243 160 182 186 193 231 195 247 13 203 230 240 243 244 244 252 258 257 264 273 277 278 278 280 279 275 273 270 269 268 265 259 257 259 261 271 320 346 0 2
195 201 222 226 229 128 175 52 106 234 187 242 194 202 223 235 197 195 323 323 299 343 108 218 133 108 166 348 335 345 333 357 349 322 334 338 322 329 340 172 227 145 182 167 208 245 128 137 199 188 193 178 205 210 253 265 257 214 230 239 252 265 268 274 278 276 276 275 276 275 272 269 267 267 266 262 258 256 253 253 260 280 325 355 10
190 199 202 221 145 208 117 231 204 307 294 304 300 234 199 171 261 71 30 306 354 6 310 80 346 104 21 231 302 32 347 336 316 338 339 330 327 303 233 251 66 139 151 185 177 186 159 174 216 146 161 194 200 217 259 267 92 93 188 222 232 263 277 276 275 277 275 273 271 270 270 268 268 267 266 267 267 262 253 242 240 238 279 351 25
182 198 217 130 199 227 155 212 93 246 221 182 258 269 215 224 79 69 265 329 355 153 278 91 82 13 143 75 10 20 263 290 335 314 312 313 322 320 350 323 312 290 60 281 115 190 177 198 197 174 183 132 51 353 309 326 38 352 302 261 234 241 260 268 276 279 275 273 269 267 266 266 266 268 268 270 270 267 256 237 225 219 245 285 33
172 209 172 164 177 216 212 227 176 230 317 265 246 277 35 291 157 244 223 172 340 358 322 29 296 188 169 177 155 185 269 357 352 308 294 290 291 318 297 293 280 261 201 264 167 180 203 238 156 186 141 65 2 341 1 355 66 309 127 335 211 230 254 261 269 272 275 272 270 264 262 261 264 266 268 271 273 273 270 252 227 215 209 243 302
175 211 158 156 184 183 212 266 187 209 241 281 265 257 235 291 133 188 48 62 11 338 316 281 77 22 293 358 95 257 150 79 255 307 314 329 285 303 321 321 316 298 258 270 302 277 159 192 46 42 77 112 213 318 19 350 297 221 236 37 187 250 251 256 259 270 272 271 267 262 262 265 268 271 276 281 285 286 284 264 250 222 213 216 209
189 167 173 177 182 189 211 230 289 248 215 225 240 242 84 282 49 318 62 94 292 214 297 324 329 161 308 176 269 232 210 204 211 201 223 254 292 329 285 290 296 319 346 336 318 333 309 49 29 61 94 51 343 339 22 288 292 299 39 167 215 226 248 263 267 273 278 285 286 281 280 281 283 286 287 289 292 290 282 269 264 252 235 206 170
190 168 165 188 185 200 190 209 236 241 210 237 232 243 179 181 139 60 286 121 219 245 226 295 296 282 181 200 207 264 273 280 264 234 235 268 251 285 269 268 314 315 315 360 1 9 24 87 90 102 115 98 327 319 315 303 240 223 233 166 192 217 233 253 276 281 292 300 307 310 307 304 303 301 298 297 297 294 288 274 274 274 266 231 178
161 156 193 205 179 220 203 206 219 234 228 241 305 1 308 91 201 221 219 243 47 321 268 228 243 284 310 336 4 209 251 264 275 315 311 347 318 325 345 336 334 348 4 8 354 353 15 37 82 79 94 102 283 348 343 286 292 215 176 142 190 218 199 230 266 295 327 333 331 329 325 324 324 323 323 323 322 316 310 302 289 284 280 265 210
187 168 188 202 203 204 221 210 218 215 180 288 235 268 239 217 216 213 169 211 232 246 276 299 274 254 269 271 253 250 219 227 260 292 288 5 329 318 344 16 343 341 334 337 357 0 351 41 67 99 168 137 25 46 255 329 327 338 320 188 201 202 211 173 301 351 347 345 340 341 341 340 340 339 337 335 332 329 323 316 310 299 285 276 258
206 152 188 197 196 198 229 239 203 210 186 275 247 241 278 339 328 63 133 214 222 261 286 300 299 305 270 259 263 273 34 287 253 78 39 22 4 336 338 335 322 293 302 323 12 355 8 42 46 51 47 43 46 358 0 341 304 263 3 331 158 338 144 23 17 356 349 353 351 354 357 355 357 356 355 350 345 340 333 324 315 307 300 290 279
169 185 206 210 170 173 201 227 144 263 160 220 345 306 71 222 1 280 237 174 224 228 236 243 255 279 326 320 295 314 349 2 28 27 4 192 99 151 336 325 318 325 296 3 355 345 72 26 30 49 63 74 112 170 2 16 311 348 22 326 27 46 27 14 6 358 359 3 4 9 11 13 12 13 10 6 2 357 350 338 327 317 308 304 301
206 178 171 213 198 177 191 231 197 171 233 214 234 281 260 290 226 233 254 206 215 230 238 264 270 268 288 339 14 340 8 354 325 62 351 334 340 321 323 335 331 344 347 27 306 330 55 72 62 42 52 56 43 55 43 234 24 307 357 320 68 31 25 23 20 8 352 2 13 15 17 17 17 16 13 10 6 3 360 354 344 328 319 312 305
217 178 181 192 210 174 179 209 190 176 206 207 222 224 283 257 269 288 279 307 234 264 258 263 292 312 23 33 330 336 277 271 304 92 322 281 310 347 358 338 341 337 324 313 293 6 40 94 60 44 35 48 76 56 263 26 313 300 355 4 355 357 27 46 37 28 12 9 0 0 10 16 16 17 16 13 9 6 3 0 356 344 324 318 316
198 171 203 209 205 152 164 199 188 192 198 204 235 236 190 211 234 258 261 262 258 230 325 340 341 38 44 29 336 315 309 305 308 294 246 274 22 328 300 46 58 314 321 310 346 342 21 26 71 56 45 38 357 230 210 252 148 280 331 8 351 326 46 51 58 57 40 29 18 1 355 14 20 22 21 20 17 14 12 10 8 2 347 333 317
191 195 191 205 175 138 190 200 176 200 213 212 221 231 178 267 257 249 263 278 308 34 34 213 272 2 5 330 304 289 293 275 277 276 236 268 224 205 276 112 164 168 311 315 322 329 351 5 6 346 28 25 307 318 287 208 61 341 351 3 358 347 44 57 73 54 41 36 14 18 1 8 28 29 28 28 27 27 22 19 18 16 10 360 341
215 192 163 202 217 170 188 200 172 196 212 211 214 226 197 197 236 220 37 14 35 16 320 293 302 324 333 301 253 275 297 322 322 309 324 324 345 327 38 80 78 151 171 323 325 346 306 344 87 303 357 355 331 341 332 331 138 305 48 44 325 349 48 94 80 71 52 51 19 13 17 29 35 36 37 38 39 37 32 28 23 17 13 12 8
202 109 222 194 194 182 190 161 178 206 207 219 195 188 29 266 0 56 39 59 121 158 242 316 318 333 320 317 336 303 308 313 320 329 345 336 12 20 36 53 42 40 41 69 305 254 354 315 349 51 45 321 328 292 287 78 92 52 355 178 205 306 75 93 96 102 88 27 12 328 15 43 46 49 50 50 45 41 37 31 26 21 16 14 13
191 170 208 226 192 199 195 203 198 199 201 197 166 193 208 184 99 84 109 112 118 214 255 328 292 279 295 298 303 281 291 315 310 333 336 356 82 196 96 56 84 123 137 162 216 269 295 316 350 350 19 314 250 344 6 12 106 129 243 273 171 209 112 110 108 104 103 87 1 332 63 67 66 65 63 55 47 42 38 32 27 21 16 9 7
224 191 198 187 211 193 187 239 186 203 183 174 180 168 183 163 140 150 145 142 177 167 47 317 298 297 284 269 282 309 309 318 5 37 289 295 195 82 94 198 155 148 160 172 251 282 289 20 6 319 13 2 24 2 10 358 18 18 116 169 138 74 90 119 142 165 82 61 47 172 104 86 78 76 68 60 53 47 41 35 28 22 17 11 4
201 198 206 203 203 180 184 214 126 132 154 172 184 189 190 180 172 164 146 151 150 161 182 224 298 318 323 311 311 342 19 11 313 269 312 303 345 112 152 176 209 104 310 247 248 270 303 40 347 318 29 16 10 11 1 353 351 8 360 81 75 45 36 113 133 29 56 185 166 155 106 91 88 87 76 68 62 54 45 38 30 22 15 10 3
193 189 201 212 210 198 188 186 179 192 166 175 170 182 192 168 186 136 133 138 152 181 212 243 247 343 325 337 8 360 312 272 285 8 354 340 340 340 323 296 21 29 292 324 264 276 312 355 321 347 29 18 10 355 338 334 337 354 324 33 72 43 87 111 338 1 29 205 159 146 108 99 98 92 86 81 70 61 54 46 39 29 19 9 6
201 196 183 190 201 221 230 216 172 184 156 152 173 175 179 183 168 159 164 168 156 190 229 235 210 131 21 17 330 284 328 336 352 340 332 342 340 343 335 28 44 33 349 303 296 33 315 300 34 17 20 2 353 313 328 340 2 342 319 55 99 127 185 82 170 232 225 239 200 140 117 110 110 105 101 92 80 72 62 54 47 36 26 18 9
206 197 187 195 206 205 214 195 209 119 181 162 125 238 202 170 178 169 155 163 179 213 250 271 31 44 27 326 268 332 356 323 331 341 348 341 348 331 8 30 44 17 317 274 280 250 283 347 38 41 352 337 319 308 358 346 358 10 11 60 58 38 42 42 30 28 137 231 162 145 127 124 124 122 110 96 85 75 68 61 52 42 32 23 17
206 204 199 205 212 201 194 204 203 164 130 159 176 209 190 164 145 143 150 170 194 203 297 30 56 82 170 259 9 321 258 317 331 338 346 340 346 357 16 348 3 339 311 309 13 343 353 318 18 32 6 7 341 36 13 9 23 18 15 45 56 61 55 47 34 16 4 358 13 127 130 120 131 132 122 111 97 83 75 67 57 48 38 28 20
212 211 219 202 200 219 191 191 250 106 100 111 133 130 148 117 147 148 152 136 88 56 55 67 108 144 190 111 340 340 4 19 26 19 11 6 354 357 9 357 338 345 329 336 1 322 127 79 63 29 45 32 29 28 9 13 28 27 10 41 29 52 75 56 39 21 14 353 334 76 54 116 151 139 132 127 110 98 73 64 58 54 44 34 24
215 218 220 221 197 199 200 160 113 110 115 128 124 147 133 135 154 146 95 70 49 57 66 70 87 90 97 87 76 50 31 40 29 23 31 19 35 37 12 350 351 336 321 357 286 237 73 74 56 57 48 38 29 27 23 22 23 20 16 19 30 21 36 78 43 24 7 1 360 342 22 106 125 123 134 120 95 71 62 65 61 57 54 43 31
203 208 216 228 228 182 195 118 86 99 106 98 59 22 192 167 162 127 104 98 115 108 102 94 60 69 48 47 59 76 75 76 72 72 70 69 61 44 17 5 23 25 31 44 48 56 69 69 66 54 53 45 32 19 27 26 25 7 14 8 24 15 2 37 41 28 11 6 351 348 338 345 7 176 197 191 161 83 60 60 73 67 62 55 44
184 187 194 232 252 229 108 106 118 103 75 61 43 42 42 26 346 90 107 97 89 67 49 60 85 75 115 92 72 79 77 75 74 76 76 71 67 64 48 29 26 58 66 72 59 54 64 64 54 52 53 42 33 21 28 26 14 13 17 17 18 359 357 3 47 47 12 358 351 348 335 330 24 335 24 350 99 70 78 46 27 69 82 68 60
73 72 58 44 36 57 97 108 105 106 88 58 34 28 28 24 13 36 118 101 89 103 104 103 113 113 95 85 84 79 76 75 76 77 74 72 70 67 64 60 55 49 57 65 60 53 57 61 53 53 50 48 35 19 27 15 3 12 355 359 5 354 -0 348 343 54 25 351 340 336 356 344 358 6 10 3 73 90 78 61 209 117 91 90 80
116 123 121 105 79 102 103 103 97 91 81 57 49 43 33 11 15 341 111 115 121 110 112 107 105 103 103 92 75 78 87 82 74 67 74 73 72 72 69 65 61 55 50 54 70 65 62 69 63 49 52 43 32 22 17 8 353 355 357 355 10 353 347 350 325 46 334 355 349 343 -0 359 2 4 7 5 44 71 82 154 216 119 112 104 103
148 170 153 121 129 112 117 115 105 100 101 74 72 53 43 7 310 104 87 84 78 76 81 87 88 85 86 88 83 72 71 83 79 70 71 77 76 74 71 72 70 67 61 56 56 71 77 77 73 60 44 37 36 17 11 356 345 6 350 3 358 354 348 352 9 54 13 358 1 7 7 356 4 3 354 355 360 77 130 184 241 164 147 152 120
14 324 159 128 87 96 116 110 99 98 91 85 84 66 43 105 105 99 94 86 86 83 81 82 83 82 84 90 94 88 84 80 84 85 82 79 75 68 65 59 59 62 66 67 70 71 73 73 75 73 53 48 45 23 12 5 13 3 351 6 355 353 350 351 57 68 42 23 24 352 15 358 9 351 356 347 354 353 340 151 221 183 229 232 152
64 51 10 333 95 112 114 110 106 99 94 96 86 91 94 89 90 89 89 92 88 82 78 79 85 90 88 93 97 100 94 89 91 92 88 82 79 78 72 70 69 72 65 60 58 59 62 74 80 81 77 60 55 41 24 22 19 12 349 13 353 347 334 351 63 73 49 24 20 25 11 350 6 351 353 346 349 336 336 135 267 237 258 269 217
124 134 171 133 83 75 88 105 105 103 88 73 89 100 113 109 102 102 99 98 97 95 92 90 99 97 97 97 97 98 96 99 107 111 110 106 96 89 87 85 81 72 77 85 88 74 72 73 73 86 88 83 74 52 38 26 20 9 0 10 15 13 7 12 18 359 54 21 30 21 4 358 5 349 348 349 344 332 337 19 256 259 272 266 255
152 126 125 110 106 101 99 101 107 105 99 70 83 74 80 105 106 108 109 100 90 80 68 52 49 89 101 100 103 103 100 87 46 98 111 112 110 115 115 110 106 103 101 87 93 104 102 93 100 100 119 118 83 64 44 29 21 11 8 22 25 9 8 11 11 1 38 23 27 14 4 10 357 352 346 349 339 335 347 355 350 338 259 258 261
133 114 108 97 83 84 96 103 108 106 91 69 86 89 90 86 97 108 109 105 94 87 77 57 56 60 87 94 83 71 60 40 31 21 102 95 89 91 91 105 123 133 134 137 120 72 119 140 146 163 168 200 155 81 53 33 22 21 31 28 14 8 14 18 7 352 12 44 21 18 17 20 345 1 354 346 333 348 350 350 338 334 331 298 274
117 102 85 86 82 74 83 97 95 95 90 73 77 81 85 88 92 102 104 104 103 99 96 89 81 76 60 57 71 74 76 64 57 51 53 121 115 102 96 79 66 56 47 55 81 115 118 106 105 133 148 81 52 39 49 39 27 26 34 23 22 19 17 12 4 350 349 51 28 35 22 8 353 11 357 347 348 339 350 340 330 328 329 355 353